SU7PY FTTM-HECA

Flight info

Callsign SU7PY
Flight time 4h 51m
Altitude 29000
Route KOBNI UQ589 NAPEN UG660 ARBEG UM215 TONBA DCT KFR R778 DITAR M720 CVO L677 GESON
Aircraft TBM8/L-SDFGRWY/S

Departure

Time 2026-05-04 18:53
Airport Mongo Airport (FTTM)

Arrival

Time 2026-05-04 23:45
Airport Cairo International Airport (HECA)
Time Latitude Longitude Altitude Speed Heading
2026-05-04 18:33 12.17262 18.67703 1418 ft 0 kts 252°
2026-05-04 18:43 12.17261 18.67702 1409 ft 2 kts 239°
2026-05-04 18:43 12.17246 18.67706 1418 ft 0 kts 130°
2026-05-04 18:50 12.17243 18.67711 1415 ft 3 kts 128°
2026-05-04 18:50 12.17216 18.67747 1419 ft 10 kts 126°
2026-05-04 18:51 12.17225 18.67821 1419 ft 12 kts 69°
2026-05-04 18:51 12.17265 18.67903 1420 ft 13 kts 62°
2026-05-04 18:51 12.17310 18.67989 1423 ft 14 kts 59°
2026-05-04 18:51 12.17318 18.68045 1422 ft 4 kts 190°
2026-05-04 18:52 12.17312 18.68039 1422 ft 0 kts 243°
2026-05-04 18:52 12.17309 18.68032 1423 ft 9 kts 244°
2026-05-04 18:52 12.17208 18.67837 1419 ft 53 kts 242°
2026-05-04 18:52 12.16974 18.67370 1432 ft 92 kts 243°
2026-05-04 18:53 12.16651 18.66740 1635 ft 107 kts 244°
2026-05-04 18:53 12.16317 18.66028 1963 ft 115 kts 245°
2026-05-04 18:53 12.15978 18.65258 2258 ft 123 kts 248°
2026-05-04 18:53 12.15536 18.64444 2460 ft 142 kts 229°
2026-05-04 18:54 12.14692 18.63896 2864 ft 143 kts 196°
2026-05-04 18:54 12.13710 18.63978 3219 ft 150 kts 154°
2026-05-04 18:54 12.12947 18.64718 3539 ft 157 kts 118°
2026-05-04 18:54 12.12693 18.65784 3956 ft 154 kts 84°
2026-05-04 18:55 12.13114 18.66771 4342 ft 155 kts 43°
2026-05-04 18:55 12.15138 18.67146 5168 ft 152 kts
2026-05-04 18:55 12.16172 18.67379 5570 ft 153 kts 18°
2026-05-04 18:56 12.17178 18.67739 5963 ft 154 kts 24°
2026-05-04 18:56 12.18061 18.68359 6362 ft 154 kts 36°
2026-05-04 18:56 12.18944 18.68983 6756 ft 155 kts 33°
2026-05-04 18:56 12.19840 18.69599 7141 ft 156 kts 34°
2026-05-04 18:57 12.20740 18.70219 7525 ft 156 kts 34°
2026-05-04 18:57 12.21644 18.70840 7913 ft 157 kts 34°
2026-05-04 18:57 12.22554 18.71467 8295 ft 158 kts 34°
2026-05-04 18:57 12.23470 18.72097 8689 ft 159 kts 34°
2026-05-04 18:58 12.24388 18.72729 9082 ft 160 kts 34°
2026-05-04 18:58 12.25310 18.73364 9472 ft 161 kts 34°
2026-05-04 18:58 12.26241 18.74005 9850 ft 161 kts 34°
2026-05-04 18:58 12.27176 18.74648 10208 ft 162 kts 34°
2026-05-04 18:59 12.28116 18.75294 10556 ft 164 kts 34°
2026-05-04 18:59 12.29053 18.75936 10907 ft 164 kts 34°
2026-05-04 18:59 12.30004 18.76591 11271 ft 165 kts 34°
2026-05-04 18:59 12.30961 18.77252 11625 ft 167 kts 34°
2026-05-04 19:00 12.31926 18.77917 11984 ft 168 kts 34°
2026-05-04 19:00 12.32896 18.78585 12345 ft 168 kts 34°
2026-05-04 19:00 12.33870 18.79256 12704 ft 170 kts 34°
2026-05-04 19:00 12.34853 18.79933 13066 ft 171 kts 34°
2026-05-04 19:01 12.35840 18.80613 13431 ft 172 kts 34°
2026-05-04 19:01 12.36839 18.81302 13771 ft 173 kts 34°
2026-05-04 19:01 12.37843 18.81993 14087 ft 174 kts 34°
2026-05-04 19:01 12.38853 18.82689 14400 ft 176 kts 34°
2026-05-04 19:02 12.39872 18.83392 14715 ft 177 kts 34°
2026-05-04 19:02 12.40551 18.83860 14924 ft 178 kts 34°
2026-05-04 19:02 12.41585 18.84573 15230 ft 180 kts 34°
2026-05-04 19:02 12.42625 18.85290 15550 ft 181 kts 34°
2026-05-04 19:03 12.43672 18.86012 15871 ft 182 kts 34°
2026-05-04 19:03 12.44726 18.86738 16191 ft 183 kts 34°
2026-05-04 19:03 12.45788 18.87470 16505 ft 185 kts 34°
2026-05-04 19:03 12.46861 18.88210 16817 ft 187 kts 34°
2026-05-04 19:04 12.47946 18.88959 17120 ft 189 kts 34°
2026-05-04 19:04 12.49040 18.89713 17424 ft 190 kts 34°
2026-05-04 19:04 12.50129 18.90464 17730 ft 192 kts 34°
2026-05-04 19:04 12.51240 18.91231 18038 ft 194 kts 34°
2026-05-04 19:05 12.52364 18.92006 18303 ft 195 kts 34°
2026-05-04 19:05 12.53493 18.92785 18575 ft 196 kts 34°
2026-05-04 19:05 12.54627 18.93567 18846 ft 197 kts 34°
2026-05-04 19:05 12.55764 18.94353 19113 ft 197 kts 35°
2026-05-04 19:06 12.56727 18.95339 19373 ft 197 kts 56°
2026-05-04 19:06 12.57539 18.96477 19642 ft 198 kts 53°
2026-05-04 19:06 12.58388 18.97597 19906 ft 199 kts 53°
2026-05-04 19:06 12.59231 18.98730 20178 ft 200 kts 53°
2026-05-04 19:07 12.60062 18.99855 20440 ft 201 kts 53°
2026-05-04 19:07 12.60908 19.01000 20700 ft 202 kts 53°
2026-05-04 19:07 12.61755 19.02147 20958 ft 203 kts 53°
2026-05-04 19:07 12.62611 19.03303 21221 ft 204 kts 53°
2026-05-04 19:08 12.63467 19.04460 21482 ft 204 kts 53°
2026-05-04 19:08 12.64328 19.05625 21740 ft 205 kts 53°
2026-05-04 19:08 12.65193 19.06793 21995 ft 206 kts 53°
2026-05-04 19:08 12.66062 19.07970 22251 ft 207 kts 53°
2026-05-04 19:09 12.66922 19.09133 22501 ft 208 kts 53°
2026-05-04 19:09 12.67797 19.10316 22753 ft 209 kts 53°
2026-05-04 19:09 12.68675 19.11505 23001 ft 210 kts 53°
2026-05-04 19:09 12.69560 19.12702 23250 ft 211 kts 53°
2026-05-04 19:10 12.70446 19.13902 23463 ft 212 kts 53°
2026-05-04 19:10 12.71336 19.15106 23659 ft 213 kts 53°
2026-05-04 19:10 12.72233 19.16320 23857 ft 214 kts 53°
2026-05-04 19:10 12.73130 19.17535 24044 ft 215 kts 52°
2026-05-04 19:11 12.74038 19.18764 24239 ft 216 kts 52°
2026-05-04 19:11 12.74947 19.19995 24430 ft 217 kts 52°
2026-05-04 19:11 12.75859 19.21230 24625 ft 218 kts 52°
2026-05-04 19:11 12.76775 19.22472 24817 ft 219 kts 52°
2026-05-04 19:12 12.77684 19.23703 25000 ft 220 kts 52°
2026-05-04 19:12 12.79534 19.26210 25384 ft 221 kts 52°
2026-05-04 19:12 12.80465 19.27473 25571 ft 222 kts 52°
2026-05-04 19:13 12.81401 19.28741 25754 ft 223 kts 52°
2026-05-04 19:13 12.82341 19.30015 25939 ft 224 kts 52°
2026-05-04 19:13 12.83283 19.31293 26118 ft 225 kts 52°
2026-05-04 19:13 12.84228 19.32576 26302 ft 226 kts 52°
2026-05-04 19:14 12.85180 19.33867 26484 ft 227 kts 52°
2026-05-04 19:14 12.86137 19.35165 26659 ft 228 kts 52°
2026-05-04 19:14 12.87087 19.36447 26837 ft 229 kts 51°
2026-05-04 19:14 12.88053 19.37750 27011 ft 230 kts 51°
2026-05-04 19:15 12.89033 19.39080 27183 ft 231 kts 51°
2026-05-04 19:15 12.89991 19.40386 27349 ft 232 kts 51°
2026-05-04 19:15 12.90965 19.41710 27512 ft 233 kts 51°
2026-05-04 19:15 12.91946 19.43043 27678 ft 234 kts 51°
2026-05-04 19:16 12.92927 19.44374 27844 ft 235 kts 51°
2026-05-04 19:16 12.93914 19.45716 28005 ft 236 kts 51°
2026-05-04 19:16 12.94905 19.47062 28167 ft 237 kts 51°
2026-05-04 19:16 12.95901 19.48416 28328 ft 238 kts 51°
2026-05-04 19:17 12.96900 19.49774 28489 ft 239 kts 50°
2026-05-04 19:17 12.97810 19.51206 28635 ft 242 kts 65°
2026-05-04 19:17 12.98255 19.52872 28761 ft 246 kts 79°
2026-05-04 19:17 12.98556 19.54633 28771 ft 254 kts 79°
2026-05-04 19:18 12.98874 19.56439 28773 ft 261 kts 78°
2026-05-04 19:18 12.99199 19.58273 28776 ft 268 kts 79°
2026-05-04 19:18 12.99536 19.60175 28779 ft 274 kts 79°
2026-05-04 19:18 12.99879 19.62122 28780 ft 280 kts 79°
2026-05-04 19:19 13.00229 19.64105 28772 ft 285 kts 79°
2026-05-04 19:19 13.00585 19.66127 28774 ft 290 kts 79°
2026-05-04 19:19 13.00947 19.68178 28777 ft 294 kts 79°
2026-05-04 19:19 13.01312 19.70250 28777 ft 297 kts 79°
2026-05-04 19:20 13.01683 19.72356 28776 ft 301 kts 79°
2026-05-04 19:20 13.02433 19.76616 28774 ft 306 kts 79°
2026-05-04 19:21 13.03193 19.80935 28779 ft 310 kts 79°
2026-05-04 19:21 13.03957 19.85277 28780 ft 313 kts 78°
2026-05-04 19:22 13.04749 19.89670 28780 ft 314 kts 79°
2026-05-04 19:22 13.05509 19.94102 28780 ft 315 kts 79°
2026-05-04 19:23 13.06293 19.98540 28777 ft 316 kts 79°
2026-05-04 19:23 13.07065 20.02957 28783 ft 317 kts 79°
2026-05-04 19:24 13.07848 20.07426 28783 ft 318 kts 79°
2026-05-04 19:24 13.08628 20.11889 28787 ft 318 kts 79°
2026-05-04 19:25 13.09408 20.16358 28785 ft 318 kts 79°
2026-05-04 19:25 13.10188 20.20834 28785 ft 318 kts 79°
2026-05-04 19:26 13.10964 20.25281 28784 ft 319 kts 79°
2026-05-04 19:26 13.11742 20.29751 28788 ft 319 kts 79°
2026-05-04 19:27 13.12521 20.34234 28790 ft 319 kts 79°
2026-05-04 19:27 13.13294 20.38685 28789 ft 319 kts 79°
2026-05-04 19:28 13.14071 20.43163 28792 ft 319 kts 79°
2026-05-04 19:28 13.14847 20.47642 28791 ft 319 kts 79°
2026-05-04 19:29 13.15622 20.52118 28791 ft 319 kts 79°
2026-05-04 19:29 13.16398 20.56601 28795 ft 319 kts 79°
2026-05-04 19:30 13.17172 20.61083 28797 ft 319 kts 79°
2026-05-04 19:30 13.17941 20.65539 28793 ft 319 kts 79°
2026-05-04 19:31 13.18713 20.70016 28799 ft 319 kts 79°
2026-05-04 19:31 13.19486 20.74506 28797 ft 319 kts 79°
2026-05-04 19:32 13.20258 20.78992 28800 ft 319 kts 79°
2026-05-04 19:32 13.21029 20.83476 28800 ft 319 kts 79°
2026-05-04 19:33 13.21813 20.87935 28798 ft 319 kts 76°
2026-05-04 19:33 13.22608 20.90046 28799 ft 318 kts 60°
2026-05-04 19:33 13.23866 20.91902 28797 ft 316 kts 46°
2026-05-04 19:33 13.25499 20.93388 28801 ft 313 kts 32°
2026-05-04 19:34 13.27408 20.94432 28804 ft 310 kts 19°
2026-05-04 19:34 13.29483 20.94989 28807 ft 307 kts
2026-05-04 19:34 13.31606 20.95041 28807 ft 304 kts 352°
2026-05-04 19:35 13.35797 20.94506 28809 ft 303 kts 351°
2026-05-04 19:35 13.39962 20.93982 28814 ft 303 kts 350°
2026-05-04 19:36 13.44154 20.93445 28813 ft 303 kts 350°
2026-05-04 19:36 13.48352 20.92912 28813 ft 304 kts 350°
2026-05-04 19:37 13.52552 20.92377 28814 ft 304 kts 350°
2026-05-04 19:37 13.56748 20.91842 28811 ft 304 kts 350°
2026-05-04 19:38 13.60954 20.91307 28813 ft 304 kts 350°
2026-05-04 19:38 13.65131 20.90774 28816 ft 304 kts 350°
2026-05-04 19:39 13.69328 20.90239 28815 ft 304 kts 350°
2026-05-04 19:39 13.73530 20.89703 28814 ft 304 kts 350°
2026-05-04 19:40 13.77728 20.89167 28820 ft 304 kts 350°
2026-05-04 19:40 13.81932 20.88630 28819 ft 304 kts 350°
2026-05-04 19:41 13.86127 20.88095 28819 ft 304 kts 350°
2026-05-04 19:41 13.90320 20.87559 28820 ft 304 kts 350°
2026-05-04 19:42 13.94514 20.87023 28820 ft 304 kts 350°
2026-05-04 19:42 13.98679 20.86490 28822 ft 303 kts 350°
2026-05-04 19:43 14.02875 20.85954 28819 ft 303 kts 350°
2026-05-04 19:43 14.07069 20.85417 28821 ft 304 kts 350°
2026-05-04 19:44 14.11266 20.84880 28822 ft 304 kts 350°
2026-05-04 19:44 14.15457 20.84342 28821 ft 304 kts 349°
2026-05-04 19:45 14.19648 20.83806 28820 ft 303 kts 349°
2026-05-04 19:45 14.23841 20.83268 28821 ft 303 kts 349°
2026-05-04 19:46 14.28030 20.82732 28815 ft 303 kts 349°
2026-05-04 19:46 14.32221 20.82194 28818 ft 303 kts 349°
2026-05-04 19:47 14.36406 20.81657 28818 ft 303 kts 349°
2026-05-04 19:47 14.40591 20.81120 28814 ft 303 kts 349°
2026-05-04 19:48 14.44777 20.80582 28815 ft 303 kts 349°
2026-05-04 19:48 14.48938 20.80048 28815 ft 303 kts 349°
2026-05-04 19:49 14.53120 20.79511 28815 ft 303 kts 349°
2026-05-04 19:49 14.57301 20.78973 28815 ft 302 kts 349°
2026-05-04 19:50 14.61484 20.78435 28813 ft 302 kts 349°
2026-05-04 19:50 14.65635 20.77901 28815 ft 302 kts 349°
2026-05-04 19:51 14.69808 20.77364 28812 ft 302 kts 349°
2026-05-04 19:51 14.73304 20.76914 28812 ft 302 kts 349°
2026-05-04 19:52 14.77451 20.76380 28812 ft 302 kts 349°
2026-05-04 19:52 14.81619 20.75843 28811 ft 302 kts 349°
2026-05-04 19:53 14.85782 20.75306 28811 ft 301 kts 349°
2026-05-04 19:53 14.89950 20.74769 28815 ft 301 kts 349°
2026-05-04 19:54 14.94110 20.74232 28816 ft 301 kts 349°
2026-05-04 19:54 14.98249 20.73698 28815 ft 301 kts 349°
2026-05-04 19:55 15.02404 20.73163 28816 ft 301 kts 349°
2026-05-04 19:55 15.06558 20.72626 28815 ft 301 kts 349°
2026-05-04 19:56 15.10717 20.72089 28818 ft 301 kts 349°
2026-05-04 19:56 15.14870 20.71553 28816 ft 301 kts 349°
2026-05-04 19:56 15.16916 20.71289 28818 ft 300 kts 349°
2026-05-04 19:57 15.18993 20.71020 28815 ft 300 kts 349°
2026-05-04 19:57 15.21073 20.70751 28816 ft 300 kts 349°
2026-05-04 19:57 15.23146 20.70483 28822 ft 300 kts 349°
2026-05-04 19:57 15.25228 20.70214 28821 ft 300 kts 349°
2026-05-04 19:58 15.27299 20.69946 28821 ft 300 kts 349°
2026-05-04 19:58 15.29373 20.69678 28821 ft 300 kts 349°
2026-05-04 19:58 15.31447 20.69410 28821 ft 300 kts 349°
2026-05-04 19:58 15.33527 20.69141 28822 ft 300 kts 349°
2026-05-04 19:59 15.35597 20.68872 28819 ft 300 kts 349°
2026-05-04 19:59 15.37676 20.68603 28820 ft 300 kts 349°
2026-05-04 19:59 15.39723 20.68338 28821 ft 300 kts 349°
2026-05-04 19:59 15.41799 20.68069 28826 ft 300 kts 349°
2026-05-04 20:00 15.43872 20.67801 28827 ft 300 kts 349°
2026-05-04 20:00 15.45947 20.67532 28825 ft 300 kts 349°
2026-05-04 20:00 15.48021 20.67263 28830 ft 300 kts 349°
2026-05-04 20:00 15.50094 20.66994 28827 ft 300 kts 349°
2026-05-04 20:01 15.52173 20.66725 28825 ft 300 kts 349°
2026-05-04 20:01 15.54249 20.66456 28830 ft 300 kts 349°
2026-05-04 20:01 15.56327 20.66186 28830 ft 300 kts 349°
2026-05-04 20:01 15.58405 20.65916 28830 ft 300 kts 349°
2026-05-04 20:02 15.60460 20.65650 28834 ft 301 kts 349°
2026-05-04 20:02 15.64614 20.65111 28827 ft 301 kts 348°
2026-05-04 20:03 15.68767 20.64572 28831 ft 301 kts 348°
2026-05-04 20:03 15.72927 20.64031 28837 ft 301 kts 348°
2026-05-04 20:04 15.77097 20.63489 28834 ft 301 kts 348°
2026-05-04 20:04 15.81262 20.62947 28837 ft 302 kts 348°
2026-05-04 20:05 15.85407 20.62408 28836 ft 302 kts 348°
2026-05-04 20:05 15.89575 20.61866 28840 ft 302 kts 348°
2026-05-04 20:06 15.93749 20.61322 28843 ft 302 kts 348°
2026-05-04 20:06 15.97922 20.60778 28843 ft 302 kts 348°
2026-05-04 20:07 16.02099 20.60234 28849 ft 303 kts 348°
2026-05-04 20:07 16.06282 20.59689 28847 ft 303 kts 348°
2026-05-04 20:08 16.10441 20.59147 28853 ft 303 kts 348°
2026-05-04 20:08 16.14628 20.58600 28852 ft 303 kts 348°
2026-05-04 20:09 16.18819 20.58053 28853 ft 303 kts 348°
2026-05-04 20:09 16.23004 20.57507 28852 ft 303 kts 348°
2026-05-04 20:10 16.27190 20.56960 28854 ft 303 kts 348°
2026-05-04 20:10 16.31374 20.56413 28857 ft 303 kts 348°
2026-05-04 20:11 16.35564 20.55865 28857 ft 303 kts 348°
2026-05-04 20:11 16.39721 20.55321 28861 ft 303 kts 348°
2026-05-04 20:12 16.43908 20.54774 28863 ft 303 kts 348°
2026-05-04 20:12 16.48092 20.54226 28860 ft 303 kts 348°
2026-05-04 20:13 16.52272 20.53678 28866 ft 303 kts 348°
2026-05-04 20:13 16.56454 20.53130 28863 ft 303 kts 347°
2026-05-04 20:14 16.60628 20.52583 28870 ft 302 kts 347°
2026-05-04 20:14 16.64782 20.52038 28867 ft 302 kts 347°
2026-05-04 20:15 16.68958 20.51491 28865 ft 302 kts 347°
2026-05-04 20:15 16.73146 20.50941 28874 ft 302 kts 347°
2026-05-04 20:16 16.77317 20.50393 28869 ft 302 kts 347°
2026-05-04 20:16 16.81496 20.49845 28870 ft 302 kts 347°
2026-05-04 20:17 16.85642 20.49300 28875 ft 302 kts 347°
2026-05-04 20:17 16.89822 20.48750 28885 ft 302 kts 347°
2026-05-04 20:18 16.94000 20.48201 28880 ft 302 kts 347°
2026-05-04 20:18 16.98176 20.47651 28879 ft 302 kts 347°
2026-05-04 20:19 17.02323 20.47105 28878 ft 302 kts 347°
2026-05-04 20:19 17.06500 20.46555 28876 ft 302 kts 347°
2026-05-04 20:20 17.10679 20.46004 28875 ft 302 kts 347°
2026-05-04 20:20 17.14851 20.45455 28885 ft 302 kts 347°
2026-05-04 20:21 17.19025 20.44904 28887 ft 302 kts 347°
2026-05-04 20:21 17.25257 20.44082 28882 ft 302 kts 347°
2026-05-04 20:22 17.29440 20.43529 28892 ft 303 kts 346°
2026-05-04 20:22 17.33623 20.42977 28885 ft 303 kts 346°
2026-05-04 20:23 17.37787 20.42426 28892 ft 303 kts 346°
2026-05-04 20:23 17.41971 20.41873 28891 ft 303 kts 346°
2026-05-04 20:24 17.46150 20.41321 28898 ft 303 kts 346°
2026-05-04 20:24 17.50334 20.40766 28900 ft 303 kts 346°
2026-05-04 20:25 17.54521 20.40212 28896 ft 303 kts 346°
2026-05-04 20:25 17.58712 20.39656 28896 ft 303 kts 346°
2026-05-04 20:26 17.62876 20.39104 28899 ft 303 kts 346°
2026-05-04 20:26 17.67062 20.38550 28898 ft 303 kts 346°
2026-05-04 20:27 17.71250 20.37993 28902 ft 303 kts 346°
2026-05-04 20:27 17.75442 20.37438 28908 ft 304 kts 346°
2026-05-04 20:28 17.79637 20.36880 28910 ft 303 kts 346°
2026-05-04 20:28 17.83826 20.36324 28907 ft 303 kts 346°
2026-05-04 20:29 17.88016 20.35767 28914 ft 303 kts 346°
2026-05-04 20:29 17.92205 20.35210 28912 ft 303 kts 345°
2026-05-04 20:30 17.96356 20.34657 28910 ft 303 kts 345°
2026-05-04 20:30 18.00535 20.34101 28917 ft 303 kts 345°
2026-05-04 20:31 18.04716 20.33544 28912 ft 303 kts 345°
2026-05-04 20:31 18.08892 20.32988 28915 ft 302 kts 345°
2026-05-04 20:32 18.13066 20.32431 28918 ft 302 kts 345°
2026-05-04 20:32 18.17240 20.31874 28922 ft 302 kts 345°
2026-05-04 20:33 18.21388 20.31322 28921 ft 302 kts 345°
2026-05-04 20:33 18.25562 20.30764 28923 ft 302 kts 345°
2026-05-04 20:34 18.29732 20.30207 28921 ft 302 kts 345°
2026-05-04 20:34 18.33899 20.29650 28929 ft 301 kts 345°
2026-05-04 20:35 18.38058 20.29095 28931 ft 301 kts 345°
2026-05-04 20:35 18.42213 20.28539 28933 ft 300 kts 345°
2026-05-04 20:36 18.44261 20.28265 28932 ft 300 kts 345°
2026-05-04 20:36 18.46338 20.27987 28930 ft 301 kts 345°
2026-05-04 20:36 18.48438 20.27706 28932 ft 300 kts 345°
2026-05-04 20:36 18.50489 20.27432 28932 ft 300 kts 345°
2026-05-04 20:37 18.52561 20.27154 28937 ft 300 kts 345°
2026-05-04 20:37 18.54639 20.26875 28936 ft 300 kts 345°
2026-05-04 20:37 18.56714 20.26597 28940 ft 300 kts 345°
2026-05-04 20:37 18.58790 20.26320 28938 ft 300 kts 345°
2026-05-04 20:38 18.60863 20.26042 28941 ft 300 kts 345°
2026-05-04 20:38 18.62932 20.25764 28940 ft 300 kts 345°
2026-05-04 20:38 18.65007 20.25485 28944 ft 300 kts 345°
2026-05-04 20:38 18.66379 20.25302 28947 ft 300 kts 345°
2026-05-04 20:39 18.68450 20.25024 28945 ft 300 kts 345°
2026-05-04 20:39 18.70519 20.24746 28947 ft 300 kts 345°
2026-05-04 20:39 18.72589 20.24469 28946 ft 300 kts 345°
2026-05-04 20:39 18.75330 20.24100 28948 ft 300 kts 345°
2026-05-04 20:40 18.76728 20.23912 28949 ft 300 kts 345°
2026-05-04 20:40 18.78797 20.23635 28950 ft 300 kts 345°
2026-05-04 20:40 18.80868 20.23357 28953 ft 300 kts 345°
2026-05-04 20:40 18.82913 20.23082 28953 ft 300 kts 345°
2026-05-04 20:41 18.84984 20.22803 28951 ft 300 kts 345°
2026-05-04 20:41 18.87057 20.22524 28955 ft 300 kts 345°
2026-05-04 20:41 18.89132 20.22246 28955 ft 300 kts 345°
2026-05-04 20:41 18.91203 20.21967 28956 ft 300 kts 345°
2026-05-04 20:42 18.93278 20.21687 28960 ft 300 kts 345°
2026-05-04 20:42 18.95353 20.21408 28959 ft 300 kts 345°
2026-05-04 20:42 18.97428 20.21129 28960 ft 300 kts 345°
2026-05-04 20:42 18.99505 20.20850 28965 ft 300 kts 345°
2026-05-04 20:43 19.01575 20.20570 28961 ft 300 kts 345°
2026-05-04 20:43 19.03623 20.20294 28962 ft 300 kts 345°
2026-05-04 20:43 19.05693 20.20016 28966 ft 300 kts 345°
2026-05-04 20:43 19.07770 20.19735 28966 ft 300 kts 345°
2026-05-04 20:44 19.09844 20.19456 28968 ft 300 kts 345°
2026-05-04 20:44 19.11913 20.19177 28968 ft 300 kts 345°
2026-05-04 20:44 19.13989 20.18897 28973 ft 300 kts 345°
2026-05-04 20:44 19.16065 20.18617 28976 ft 300 kts 345°
2026-05-04 20:45 19.18139 20.18336 28971 ft 300 kts 345°
2026-05-04 20:45 19.20211 20.18057 28974 ft 300 kts 345°
2026-05-04 20:45 19.22286 20.17777 28982 ft 300 kts 345°
2026-05-04 20:45 19.24335 20.17500 28982 ft 300 kts 345°
2026-05-04 20:46 19.26408 20.17219 28979 ft 300 kts 345°
2026-05-04 20:46 19.28486 20.16938 28983 ft 300 kts 345°
2026-05-04 20:46 19.30561 20.16658 28982 ft 300 kts 345°
2026-05-04 20:46 19.32634 20.16378 28986 ft 300 kts 345°
2026-05-04 20:47 19.34711 20.16096 28989 ft 300 kts 345°
2026-05-04 20:47 19.36783 20.15816 28989 ft 300 kts 345°
2026-05-04 20:47 19.40933 20.15254 28990 ft 301 kts 345°
2026-05-04 20:48 19.45089 20.14692 28992 ft 301 kts 345°
2026-05-04 20:48 19.49218 20.14132 28997 ft 301 kts 345°
2026-05-04 20:49 19.53365 20.13569 28998 ft 301 kts 345°
2026-05-04 20:49 19.55442 20.13288 29003 ft 300 kts 345°
2026-05-04 20:49 19.57515 20.13007 29007 ft 300 kts 345°
2026-05-04 20:50 19.59589 20.12725 29003 ft 300 kts 345°
2026-05-04 20:50 19.61661 20.12444 29008 ft 300 kts 345°
2026-05-04 20:50 19.63736 20.12163 29006 ft 300 kts 345°
2026-05-04 20:50 19.65811 20.11881 29012 ft 300 kts 345°
2026-05-04 20:51 19.67882 20.11599 29011 ft 300 kts 345°
2026-05-04 20:51 19.69955 20.11318 29010 ft 300 kts 345°
2026-05-04 20:51 19.72031 20.11036 29017 ft 300 kts 345°
2026-05-04 20:51 19.74102 20.10754 29016 ft 300 kts 345°
2026-05-04 20:52 19.76150 20.10476 29020 ft 300 kts 345°
2026-05-04 20:52 19.78223 20.10194 29014 ft 300 kts 345°
2026-05-04 20:52 19.80299 20.09911 29018 ft 300 kts 345°
2026-05-04 20:52 19.82379 20.09628 29022 ft 300 kts 345°
2026-05-04 20:53 19.84457 20.09345 29021 ft 300 kts 345°
2026-05-04 20:53 19.86530 20.09063 29023 ft 300 kts 345°
2026-05-04 20:53 19.88606 20.08780 29030 ft 300 kts 345°
2026-05-04 20:53 19.90677 20.08498 29030 ft 300 kts 345°
2026-05-04 20:54 19.92723 20.08219 29027 ft 300 kts 345°
2026-05-04 20:54 19.94797 20.07936 29033 ft 300 kts 345°
2026-05-04 20:54 19.96868 20.07654 29032 ft 300 kts 345°
2026-05-04 20:54 19.98945 20.07371 29035 ft 300 kts 345°
2026-05-04 20:55 20.01019 20.07089 29032 ft 300 kts 345°
2026-05-04 20:55 20.03093 20.06805 29033 ft 300 kts 345°
2026-05-04 20:55 20.05164 20.06523 29039 ft 300 kts 345°
2026-05-04 20:55 20.07226 20.06242 29039 ft 299 kts 345°
2026-05-04 20:56 20.09298 20.05959 29038 ft 299 kts 345°
2026-05-04 20:56 20.11366 20.05676 29039 ft 299 kts 345°
2026-05-04 20:56 20.13436 20.05393 29045 ft 299 kts 345°
2026-05-04 20:56 20.15502 20.05111 29045 ft 299 kts 345°
2026-05-04 20:57 20.17544 20.04833 29044 ft 299 kts 345°
2026-05-04 20:57 20.19611 20.04550 29044 ft 300 kts 345°
2026-05-04 20:57 20.21685 20.04266 29049 ft 299 kts 345°
2026-05-04 20:57 20.23754 20.03983 29050 ft 300 kts 345°
2026-05-04 20:58 20.25824 20.03700 29050 ft 299 kts 345°
2026-05-04 20:58 20.27894 20.03416 29046 ft 300 kts 345°
2026-05-04 20:58 20.29963 20.03133 29047 ft 299 kts 345°
2026-05-04 20:58 20.32029 20.02851 29049 ft 299 kts 345°
2026-05-04 20:59 20.34099 20.02567 29052 ft 300 kts 345°
2026-05-04 20:59 20.36142 20.02287 29055 ft 299 kts 345°
2026-05-04 20:59 20.38208 20.02004 29057 ft 299 kts 345°
2026-05-04 20:59 20.40272 20.01721 29057 ft 299 kts 345°
2026-05-04 21:00 20.42344 20.01437 29056 ft 300 kts 345°
2026-05-04 21:00 20.44413 20.01153 29057 ft 300 kts 345°
2026-05-04 21:00 20.46492 20.00868 29060 ft 300 kts 345°
2026-05-04 21:00 20.48558 20.00584 29059 ft 300 kts 345°
2026-05-04 21:01 20.50628 20.00300 29060 ft 300 kts 345°
2026-05-04 21:01 20.52695 20.00017 29060 ft 299 kts 345°
2026-05-04 21:01 20.54765 19.99732 29061 ft 299 kts 345°
2026-05-04 21:01 20.56830 19.99449 29068 ft 299 kts 345°
2026-05-04 21:02 20.58897 19.99164 29062 ft 300 kts 345°
2026-05-04 21:02 20.65218 19.98296 29060 ft 300 kts 345°
2026-05-04 21:03 20.67285 19.98011 29063 ft 300 kts 345°
2026-05-04 21:03 20.69358 19.97726 29064 ft 300 kts 345°
2026-05-04 21:03 20.71429 19.97441 29064 ft 300 kts 346°
2026-05-04 21:03 20.73500 19.97156 29070 ft 300 kts 346°
2026-05-04 21:04 20.75568 19.96871 29072 ft 300 kts 346°
2026-05-04 21:04 20.77633 19.96587 29070 ft 299 kts 346°
2026-05-04 21:04 20.79704 19.96301 29064 ft 300 kts 346°
2026-05-04 21:04 20.81775 19.96016 29071 ft 300 kts 346°
2026-05-04 21:05 20.83841 19.95731 29072 ft 300 kts 346°
2026-05-04 21:05 20.85884 19.95449 29074 ft 300 kts 346°
2026-05-04 21:05 20.87954 19.95163 29074 ft 300 kts 346°
2026-05-04 21:05 20.90022 19.94878 29072 ft 300 kts 346°
2026-05-04 21:06 20.92088 19.94592 29078 ft 300 kts 346°
2026-05-04 21:06 20.94159 19.94306 29080 ft 300 kts 346°
2026-05-04 21:06 20.96231 19.94020 29081 ft 300 kts 346°
2026-05-04 21:06 20.98302 19.93734 29077 ft 300 kts 346°
2026-05-04 21:07 21.00372 19.93448 29078 ft 300 kts 346°
2026-05-04 21:07 21.02442 19.93162 29082 ft 300 kts 346°
2026-05-04 21:07 21.04512 19.92876 29078 ft 300 kts 346°
2026-05-04 21:07 21.06582 19.92589 29082 ft 300 kts 346°
2026-05-04 21:08 21.08651 19.92302 29082 ft 300 kts 346°
2026-05-04 21:08 21.10721 19.92016 29084 ft 300 kts 346°
2026-05-04 21:08 21.12786 19.91731 29085 ft 299 kts 346°
2026-05-04 21:08 21.14852 19.91444 29085 ft 299 kts 346°
2026-05-04 21:09 21.16923 19.91157 29083 ft 299 kts 346°
2026-05-04 21:09 21.18987 19.90872 29086 ft 299 kts 346°
2026-05-04 21:09 21.21020 19.90590 29088 ft 298 kts 346°
2026-05-04 21:09 21.23103 19.90301 29089 ft 298 kts 346°
2026-05-04 21:10 21.25137 19.90019 29088 ft 298 kts 346°
2026-05-04 21:10 21.27189 19.89734 29086 ft 298 kts 346°
2026-05-04 21:10 21.29242 19.89449 29089 ft 297 kts 346°
2026-05-04 21:10 21.31294 19.89164 29090 ft 297 kts 346°
2026-05-04 21:11 21.33349 19.88879 29090 ft 297 kts 346°
2026-05-04 21:11 21.35401 19.88594 29091 ft 297 kts 346°
2026-05-04 21:11 21.37448 19.88309 29089 ft 297 kts 346°
2026-05-04 21:11 21.39496 19.88025 29092 ft 297 kts 346°
2026-05-04 21:12 21.41540 19.87741 29096 ft 296 kts 346°
2026-05-04 21:12 21.43588 19.87456 29096 ft 296 kts 346°
2026-05-04 21:12 21.45633 19.87172 29096 ft 296 kts 346°
2026-05-04 21:12 21.47647 19.86892 29098 ft 296 kts 346°
2026-05-04 21:13 21.49690 19.86607 29099 ft 296 kts 346°
2026-05-04 21:13 21.51737 19.86322 29097 ft 296 kts 347°
2026-05-04 21:13 21.53777 19.86038 29101 ft 296 kts 346°
2026-05-04 21:13 21.55834 19.85859 29098 ft 300 kts 356°
2026-05-04 21:14 21.57919 19.86261 29096 ft 309 kts 11°
2026-05-04 21:14 21.59881 19.87272 29097 ft 319 kts 27°
2026-05-04 21:14 21.61559 19.88871 29100 ft 327 kts 44°
2026-05-04 21:14 21.63007 19.90768 29099 ft 328 kts 46°
2026-05-04 21:15 21.65903 19.94551 29099 ft 328 kts 45°
2026-05-04 21:15 21.68785 19.98315 29099 ft 328 kts 45°
2026-05-04 21:16 21.71684 20.02105 29098 ft 328 kts 45°
2026-05-04 21:16 21.74091 20.05252 29094 ft 328 kts 46°
2026-05-04 21:17 21.76991 20.09046 29105 ft 328 kts 46°
2026-05-04 21:17 21.79890 20.12842 29105 ft 328 kts 46°
2026-05-04 21:18 21.82784 20.16634 29102 ft 328 kts 46°
2026-05-04 21:18 21.85682 20.20434 29100 ft 328 kts 46°
2026-05-04 21:19 21.88581 20.24237 29103 ft 328 kts 46°
2026-05-04 21:19 21.91479 20.28044 29100 ft 329 kts 46°
2026-05-04 21:20 21.94360 20.31828 29096 ft 329 kts 46°
2026-05-04 21:20 21.97260 20.35642 29105 ft 329 kts 46°
2026-05-04 21:21 22.00160 20.39459 29106 ft 329 kts 46°
2026-05-04 21:21 22.03065 20.43284 29114 ft 329 kts 46°
2026-05-04 21:22 22.05964 20.47104 29101 ft 329 kts 46°
2026-05-04 21:22 22.08862 20.50928 29103 ft 329 kts 46°
2026-05-04 21:23 22.11733 20.54715 29111 ft 328 kts 46°
2026-05-04 21:23 22.14622 20.58529 29107 ft 327 kts 46°
2026-05-04 21:24 22.17499 20.62332 29108 ft 327 kts 46°
2026-05-04 21:24 22.20354 20.66107 29110 ft 326 kts 46°
2026-05-04 21:25 22.23221 20.69901 29114 ft 326 kts 46°
2026-05-04 21:25 22.26091 20.73702 29109 ft 326 kts 46°
2026-05-04 21:26 22.28941 20.77479 29113 ft 326 kts 46°
2026-05-04 21:26 22.31809 20.81282 29112 ft 326 kts 46°
2026-05-04 21:27 22.34675 20.85086 29113 ft 326 kts 46°
2026-05-04 21:27 22.37539 20.88889 29113 ft 326 kts 46°
2026-05-04 21:28 22.40396 20.92687 29120 ft 326 kts 46°
2026-05-04 21:28 22.43234 20.96461 29119 ft 325 kts 46°
2026-05-04 21:29 22.46089 21.00260 29117 ft 325 kts 46°
2026-05-04 21:29 22.48939 21.04057 29121 ft 325 kts 46°
2026-05-04 21:30 22.51792 21.07860 29120 ft 325 kts 46°
2026-05-04 21:30 22.54637 21.11654 29120 ft 325 kts 46°
2026-05-04 21:31 22.58899 21.17345 29121 ft 324 kts 46°
2026-05-04 21:32 22.61743 21.21145 29126 ft 324 kts 46°
2026-05-04 21:32 22.64562 21.24914 29124 ft 324 kts 46°
2026-05-04 21:33 22.67396 21.28707 29120 ft 324 kts 47°
2026-05-04 21:33 22.70235 21.32510 29122 ft 324 kts 47°
2026-05-04 21:34 22.73064 21.36301 29124 ft 324 kts 47°
2026-05-04 21:34 22.75892 21.40094 29117 ft 323 kts 47°
2026-05-04 21:35 22.78715 21.43882 29121 ft 323 kts 47°
2026-05-04 21:35 22.81546 21.47685 29120 ft 323 kts 47°
2026-05-04 21:36 22.84366 21.51476 29122 ft 323 kts 47°
2026-05-04 21:36 22.87178 21.55259 29122 ft 323 kts 47°
2026-05-04 21:37 22.89999 21.59057 29121 ft 323 kts 47°
2026-05-04 21:37 22.92819 21.62855 29122 ft 323 kts 47°
2026-05-04 21:38 22.95640 21.66659 29119 ft 323 kts 47°
2026-05-04 21:38 22.98461 21.70465 29119 ft 323 kts 47°
2026-05-04 21:39 23.01266 21.74252 29121 ft 323 kts 47°
2026-05-04 21:39 23.04088 21.78063 29121 ft 323 kts 47°
2026-05-04 21:40 23.06903 21.81872 29123 ft 323 kts 47°
2026-05-04 21:40 23.09718 21.85680 29123 ft 323 kts 47°
2026-05-04 21:41 23.12535 21.89494 29119 ft 324 kts 47°
2026-05-04 21:41 23.15339 21.93294 29122 ft 324 kts 47°
2026-05-04 21:42 23.18156 21.97115 29126 ft 324 kts 47°
2026-05-04 21:42 23.20973 22.00937 29124 ft 324 kts 47°
2026-05-04 21:43 23.23786 22.04759 29121 ft 324 kts 47°
2026-05-04 21:43 23.26597 22.08579 29127 ft 324 kts 47°
2026-05-04 21:44 23.29413 22.12410 29125 ft 324 kts 47°
2026-05-04 21:44 23.32225 22.16238 29125 ft 324 kts 47°
2026-05-04 21:45 23.35027 22.20054 29122 ft 324 kts 47°
2026-05-04 21:45 23.37837 22.23885 29120 ft 324 kts 47°
2026-05-04 21:46 23.40653 22.27727 29122 ft 324 kts 47°
2026-05-04 21:46 23.43464 22.31565 29126 ft 324 kts 47°
2026-05-04 21:47 23.46256 22.35380 29125 ft 324 kts 47°
2026-05-04 21:47 23.49064 22.39219 29121 ft 324 kts 47°
2026-05-04 21:48 23.51875 22.43066 29124 ft 324 kts 47°
2026-05-04 21:48 23.54687 22.46916 29124 ft 324 kts 47°
2026-05-04 21:49 23.57481 22.50746 29127 ft 324 kts 47°
2026-05-04 21:49 23.60288 22.54595 29125 ft 324 kts 47°
2026-05-04 21:50 23.63099 22.58454 29125 ft 324 kts 47°
2026-05-04 21:50 23.65902 22.62304 29123 ft 324 kts 47°
2026-05-04 21:51 23.68707 22.66160 29126 ft 324 kts 47°
2026-05-04 21:51 23.71512 22.70020 29125 ft 324 kts 47°
2026-05-04 21:52 23.74299 22.73856 29124 ft 325 kts 47°
2026-05-04 21:52 23.77103 22.77721 29125 ft 325 kts 47°
2026-05-04 21:53 23.79908 22.81589 29130 ft 325 kts 47°
2026-05-04 21:53 23.82714 22.85461 29124 ft 325 kts 47°
2026-05-04 21:54 23.85516 22.89331 29125 ft 325 kts 47°
2026-05-04 21:54 23.88319 22.93205 29128 ft 325 kts 47°
2026-05-04 21:55 23.91125 22.97086 29127 ft 325 kts 47°
2026-05-04 21:55 23.93929 23.00969 29129 ft 325 kts 47°
2026-05-04 21:56 23.96715 23.04829 29129 ft 325 kts 47°
2026-05-04 21:56 23.99516 23.08713 29128 ft 325 kts 47°
2026-05-04 21:57 24.02321 23.12605 29130 ft 325 kts 47°
2026-05-04 21:57 24.05125 23.16498 29131 ft 326 kts 47°
2026-05-04 21:58 24.07925 23.20391 29130 ft 326 kts 47°
2026-05-04 21:58 24.10730 23.24292 29128 ft 326 kts 47°
2026-05-04 21:59 24.13518 23.28174 29129 ft 326 kts 47°
2026-05-04 21:59 24.16752 23.31568 29123 ft 316 kts 25°
2026-05-04 22:00 24.20583 23.33798 29129 ft 314 kts 22°
2026-05-04 22:00 24.24431 23.36054 29134 ft 314 kts 22°
2026-05-04 22:01 24.28288 23.38299 29131 ft 314 kts 22°
2026-05-04 22:01 24.32153 23.40556 29128 ft 314 kts 22°
2026-05-04 22:02 24.36009 23.42809 29133 ft 314 kts 22°
2026-05-04 22:02 24.39840 23.45047 29131 ft 313 kts 21°
2026-05-04 22:03 24.43692 23.47303 29134 ft 314 kts 22°
2026-05-04 22:03 24.46897 23.49178 29136 ft 314 kts 22°
2026-05-04 22:04 24.51408 23.51820 29138 ft 314 kts 22°
2026-05-04 22:04 24.54622 23.53704 29139 ft 314 kts 21°
2026-05-04 22:05 24.58487 23.55971 29140 ft 314 kts 21°
2026-05-04 22:05 24.62352 23.58240 29136 ft 315 kts 21°
2026-05-04 22:06 24.66220 23.60511 29139 ft 315 kts 21°
2026-05-04 22:06 24.70061 23.62769 29137 ft 315 kts 21°
2026-05-04 22:07 24.73934 23.65047 29144 ft 315 kts 21°
2026-05-04 22:07 24.77807 23.67327 29144 ft 316 kts 21°
2026-05-04 22:08 24.81679 23.69608 29145 ft 316 kts 21°
2026-05-04 22:08 24.85559 23.71894 29132 ft 316 kts 21°
2026-05-04 22:09 24.89434 23.74180 29143 ft 316 kts 21°
2026-05-04 22:09 24.93315 23.76470 29151 ft 316 kts 21°
2026-05-04 22:10 24.97196 23.78763 29144 ft 316 kts 21°
2026-05-04 22:10 25.01053 23.81043 29151 ft 316 kts 21°
2026-05-04 22:11 25.04934 23.83339 29146 ft 316 kts 21°
2026-05-04 22:11 25.08823 23.85642 29153 ft 317 kts 21°
2026-05-04 22:12 25.12704 23.87940 29147 ft 317 kts 21°
2026-05-04 22:12 25.16592 23.90246 29149 ft 317 kts 21°
2026-05-04 22:13 25.20482 23.92553 29151 ft 317 kts 21°
2026-05-04 22:13 25.24369 23.94861 29150 ft 317 kts 21°
2026-05-04 22:14 25.28236 23.97159 29153 ft 317 kts 21°
2026-05-04 22:14 25.32135 23.99478 29151 ft 318 kts 20°
2026-05-04 22:15 25.36031 24.01795 29154 ft 318 kts 20°
2026-05-04 22:15 25.39924 24.04113 29153 ft 318 kts 20°
2026-05-04 22:16 25.43802 24.06425 29154 ft 318 kts 20°
2026-05-04 22:16 25.47699 24.08748 29157 ft 318 kts 20°
2026-05-04 22:17 25.51605 24.11081 29155 ft 318 kts 20°
2026-05-04 22:17 25.55502 24.13408 29149 ft 318 kts 20°
2026-05-04 22:18 25.59383 24.15728 29152 ft 319 kts 20°
2026-05-04 22:18 25.63286 24.18062 29154 ft 319 kts 20°
2026-05-04 22:19 25.67189 24.20399 29155 ft 319 kts 20°
2026-05-04 22:19 25.71099 24.22741 29156 ft 318 kts 20°
2026-05-04 22:20 25.75001 24.25080 29157 ft 319 kts 20°
2026-05-04 22:20 25.78908 24.27424 29158 ft 319 kts 20°
2026-05-04 22:21 25.82819 24.29773 29156 ft 320 kts 20°
2026-05-04 22:21 25.86710 24.32111 29160 ft 319 kts 20°
2026-05-04 22:22 25.90620 24.34461 29158 ft 319 kts 20°
2026-05-04 22:22 25.94529 24.36814 29161 ft 319 kts 20°
2026-05-04 22:23 25.98444 24.39171 29161 ft 319 kts 20°
2026-05-04 22:23 26.02354 24.41529 29160 ft 320 kts 20°
2026-05-04 22:24 26.06264 24.43887 29164 ft 320 kts 20°
2026-05-04 22:24 26.10156 24.46235 29163 ft 320 kts 20°
2026-05-04 22:25 26.14073 24.48603 29158 ft 320 kts 20°
2026-05-04 22:25 26.18000 24.50976 29162 ft 320 kts 20°
2026-05-04 22:26 26.21919 24.53347 29162 ft 321 kts 20°
2026-05-04 22:26 26.25817 24.55707 29162 ft 321 kts 20°
2026-05-04 22:27 26.29746 24.58086 29162 ft 321 kts 20°
2026-05-04 22:27 26.33676 24.60471 29162 ft 321 kts 20°
2026-05-04 22:28 26.37607 24.62855 29159 ft 322 kts 20°
2026-05-04 22:28 26.41544 24.65248 29159 ft 322 kts 19°
2026-05-04 22:29 26.45455 24.67624 29164 ft 322 kts 19°
2026-05-04 22:29 26.49384 24.70014 29163 ft 322 kts 20°
2026-05-04 22:30 26.53320 24.72410 29161 ft 322 kts 19°
2026-05-04 22:30 26.57253 24.74806 29162 ft 322 kts 19°
2026-05-04 22:31 26.61192 24.77208 29160 ft 322 kts 19°
2026-05-04 22:31 26.65138 24.79615 29169 ft 323 kts 19°
2026-05-04 22:32 26.69055 24.82008 29165 ft 323 kts 19°
2026-05-04 22:32 26.72999 24.84418 29164 ft 323 kts 19°
2026-05-04 22:33 26.76950 24.86835 29163 ft 323 kts 19°
2026-05-04 22:33 26.80906 24.89257 29165 ft 323 kts 19°
2026-05-04 22:34 26.84825 24.91657 29167 ft 323 kts 19°
2026-05-04 22:34 26.88773 24.94078 29165 ft 324 kts 19°
2026-05-04 22:35 26.92725 24.96503 29168 ft 324 kts 19°
2026-05-04 22:35 26.96677 24.98933 29168 ft 324 kts 20°
2026-05-04 22:35 26.98516 25.00477 29164 ft 338 kts 36°
2026-05-04 22:36 27.00021 25.02547 29162 ft 347 kts 48°
2026-05-04 22:36 27.02772 25.07003 29167 ft 347 kts 48°
2026-05-04 22:37 27.05526 25.11414 29169 ft 347 kts 48°
2026-05-04 22:37 27.08288 25.15867 29167 ft 348 kts 48°
2026-05-04 22:38 27.11056 25.20323 29166 ft 348 kts 48°
2026-05-04 22:38 27.13822 25.24786 29169 ft 348 kts 48°
2026-05-04 22:39 27.16587 25.29248 29165 ft 348 kts 48°
2026-05-04 22:39 27.19358 25.33726 29166 ft 349 kts 48°
2026-05-04 22:40 27.22115 25.38185 29164 ft 349 kts 48°
2026-05-04 22:40 27.24887 25.42675 29164 ft 349 kts 48°
2026-05-04 22:41 27.27659 25.47167 29164 ft 350 kts 48°
2026-05-04 22:41 27.30433 25.51667 29162 ft 350 kts 48°
2026-05-04 22:42 27.33207 25.56174 29164 ft 350 kts 48°
2026-05-04 22:42 27.35966 25.60658 29162 ft 351 kts 48°
2026-05-04 22:43 27.38744 25.65180 29163 ft 351 kts 48°
2026-05-04 22:43 27.41522 25.69705 29162 ft 351 kts 48°
2026-05-04 22:44 27.44295 25.74228 29160 ft 351 kts 48°
2026-05-04 22:44 27.47068 25.78753 29160 ft 351 kts 48°
2026-05-04 22:45 27.49823 25.83257 29160 ft 351 kts 48°
2026-05-04 22:45 27.53983 25.90064 29157 ft 352 kts 49°
2026-05-04 22:46 27.56763 25.94617 29159 ft 352 kts 49°
2026-05-04 22:46 27.59538 25.99168 29160 ft 352 kts 49°
2026-05-04 22:47 27.62296 26.03695 29148 ft 352 kts 49°
2026-05-04 22:47 27.65069 26.08253 29158 ft 352 kts 49°
2026-05-04 22:48 27.67837 26.12806 29145 ft 352 kts 49°
2026-05-04 22:48 27.70602 26.17360 29158 ft 352 kts 49°
2026-05-04 22:49 27.73366 26.21916 29153 ft 352 kts 49°
2026-05-04 22:49 27.76128 26.26475 29156 ft 352 kts 49°
2026-05-04 22:50 27.78428 26.30273 29156 ft 352 kts 49°
2026-05-04 22:50 27.81643 26.35590 29149 ft 353 kts 49°
2026-05-04 22:51 27.83958 26.39421 29151 ft 353 kts 49°
2026-05-04 22:51 27.86709 26.43978 29150 ft 353 kts 49°
2026-05-04 22:52 27.89478 26.48573 29151 ft 353 kts 49°
2026-05-04 22:52 27.92247 26.53171 29154 ft 353 kts 49°
2026-05-04 22:53 27.95017 26.57775 29150 ft 354 kts 49°
2026-05-04 22:53 27.97784 26.62379 29157 ft 354 kts 49°
2026-05-04 22:54 28.00553 26.66990 29153 ft 354 kts 49°
2026-05-04 22:54 28.03300 26.71574 29158 ft 354 kts 49°
2026-05-04 22:55 28.06073 26.76201 29154 ft 355 kts 49°
2026-05-04 22:55 28.08844 26.80832 29154 ft 355 kts 49°
2026-05-04 22:56 28.11615 26.85468 29154 ft 356 kts 49°
2026-05-04 22:56 28.14391 26.90117 29154 ft 356 kts 49°
2026-05-04 22:57 28.17169 26.94775 29156 ft 357 kts 49°
2026-05-04 22:57 28.19932 26.99414 29156 ft 357 kts 49°
2026-05-04 22:58 28.22731 27.04115 29155 ft 358 kts 49°
2026-05-04 22:58 28.25495 27.08768 29156 ft 358 kts 49°
2026-05-04 22:59 28.28287 27.13467 29158 ft 359 kts 49°
2026-05-04 22:59 28.31077 27.18172 29155 ft 359 kts 49°
2026-05-04 23:00 28.33871 27.22886 29160 ft 360 kts 49°
2026-05-04 23:00 28.36667 27.27610 29155 ft 361 kts 49°
2026-05-04 23:01 28.39465 27.32343 29157 ft 361 kts 49°
2026-05-04 23:01 28.42266 27.37085 29155 ft 362 kts 49°
2026-05-04 23:02 28.45072 27.41844 29152 ft 363 kts 49°
2026-05-04 23:02 28.47863 27.46581 29152 ft 363 kts 49°
2026-05-04 23:03 28.50678 27.51362 29152 ft 364 kts 49°
2026-05-04 23:03 28.53492 27.56150 29150 ft 364 kts 49°
2026-05-04 23:04 28.56314 27.60955 29155 ft 365 kts 49°
2026-05-04 23:04 28.59131 27.65758 29150 ft 365 kts 49°
2026-05-04 23:05 28.61934 27.70541 29152 ft 366 kts 49°
2026-05-04 23:05 28.64757 27.75366 29155 ft 366 kts 48°
2026-05-04 23:06 28.67579 27.80192 29152 ft 366 kts 48°
2026-05-04 23:06 28.70400 27.85022 29145 ft 366 kts 48°
2026-05-04 23:07 28.73240 27.89853 29150 ft 366 kts 48°
2026-05-04 23:07 28.76070 27.94688 29153 ft 367 kts 48°
2026-05-04 23:08 28.78907 27.99533 29155 ft 367 kts 48°
2026-05-04 23:08 28.81744 28.04386 29151 ft 368 kts 48°
2026-05-04 23:09 28.84578 28.09241 29150 ft 368 kts 48°
2026-05-04 23:09 28.87411 28.14111 29151 ft 369 kts 49°
2026-05-04 23:10 28.90225 28.18963 29154 ft 369 kts 48°
2026-05-04 23:10 28.93059 28.23852 29156 ft 369 kts 49°
2026-05-04 23:11 28.95893 28.28749 29152 ft 369 kts 48°
2026-05-04 23:11 28.98728 28.33650 29153 ft 370 kts 49°
2026-05-04 23:12 29.01564 28.38562 29154 ft 370 kts 49°
2026-05-04 23:12 29.04386 28.43453 29150 ft 371 kts 48°
2026-05-04 23:13 29.07262 28.48340 29156 ft 370 kts 47°
2026-05-04 23:13 29.10133 28.53240 29153 ft 371 kts 48°
2026-05-04 23:14 29.13005 28.58144 29151 ft 371 kts 48°
2026-05-04 23:14 29.15879 28.63056 29149 ft 371 kts 48°
2026-05-04 23:15 29.18750 28.67972 29148 ft 371 kts 48°
2026-05-04 23:15 29.21624 28.72896 29151 ft 372 kts 48°
2026-05-04 23:16 29.24495 28.77822 29159 ft 372 kts 48°
2026-05-04 23:16 29.27351 28.82730 29153 ft 372 kts 48°
2026-05-04 23:17 29.30225 28.87673 29153 ft 372 kts 48°
2026-05-04 23:17 29.33095 28.92615 29146 ft 372 kts 48°
2026-05-04 23:18 29.35966 28.97566 29150 ft 372 kts 48°
2026-05-04 23:18 29.38836 29.02519 29149 ft 372 kts 48°
2026-05-04 23:19 29.41214 29.07810 29142 ft 385 kts 70°
2026-05-04 23:19 29.41681 29.10842 29139 ft 388 kts 85°
2026-05-04 23:19 29.41684 29.13939 29139 ft 388 kts 92°
2026-05-04 23:20 29.41614 29.20127 29144 ft 388 kts 91°
2026-05-04 23:20 29.41544 29.26319 29143 ft 388 kts 91°
2026-05-04 23:21 29.41469 29.32501 29145 ft 388 kts 91°
2026-05-04 23:21 29.41393 29.38650 29150 ft 388 kts 91°
2026-05-04 23:22 29.41314 29.44833 29146 ft 388 kts 91°
2026-05-04 23:22 29.41231 29.51026 29147 ft 388 kts 91°
2026-05-04 23:23 29.41147 29.57206 29148 ft 388 kts 92°
2026-05-04 23:23 29.41059 29.63392 29150 ft 387 kts 92°
2026-05-04 23:24 29.40968 29.69572 29148 ft 387 kts 92°
2026-05-04 23:24 29.40875 29.75705 29145 ft 387 kts 92°
2026-05-04 23:25 29.40779 29.81896 29145 ft 387 kts 92°
2026-05-04 23:25 29.40679 29.88089 29148 ft 387 kts 92°
2026-05-04 23:26 29.40578 29.94225 29145 ft 387 kts 92°
2026-05-04 23:26 29.40472 30.00417 28901 ft 394 kts 92°
2026-05-04 23:27 29.40416 30.03614 28424 ft 406 kts 92°
2026-05-04 23:27 29.40359 30.06869 27955 ft 408 kts 92°
2026-05-04 23:27 29.40302 30.10123 27496 ft 408 kts 92°
2026-05-04 23:27 29.40243 30.13371 27039 ft 407 kts 92°
2026-05-04 23:28 29.40183 30.16626 26590 ft 407 kts 92°
2026-05-04 23:28 29.40120 30.19861 26148 ft 406 kts 92°
2026-05-04 23:28 29.40059 30.23101 25713 ft 406 kts 92°
2026-05-04 23:28 29.40000 30.26333 25283 ft 405 kts 92°
2026-05-04 23:29 29.39936 30.29566 24861 ft 404 kts 92°
2026-05-04 23:29 29.39869 30.32790 24447 ft 404 kts 92°
2026-05-04 23:29 29.40008 30.35958 24035 ft 403 kts 79°
2026-05-04 23:29 29.40682 30.39061 23605 ft 399 kts 68°
2026-05-04 23:30 29.41841 30.41961 23103 ft 392 kts 55°
2026-05-04 23:30 29.43362 30.44451 22631 ft 383 kts 44°
2026-05-04 23:30 29.45046 30.46803 22168 ft 380 kts 44°
2026-05-04 23:30 29.46689 30.49156 21711 ft 377 kts 45°
2026-05-04 23:31 29.48325 30.51493 21259 ft 373 kts 44°
2026-05-04 23:31 29.49957 30.53797 20817 ft 370 kts 44°
2026-05-04 23:31 29.51577 30.56086 20384 ft 367 kts 44°
2026-05-04 23:31 29.53171 30.58358 19954 ft 364 kts 44°
2026-05-04 23:32 29.54757 30.60620 19529 ft 361 kts 44°
2026-05-04 23:32 29.56329 30.62855 19113 ft 358 kts 44°
2026-05-04 23:32 29.57889 30.65072 18694 ft 356 kts 44°
2026-05-04 23:32 29.59439 30.67280 18265 ft 353 kts 44°
2026-05-04 23:33 29.60971 30.69465 17794 ft 350 kts 44°
2026-05-04 23:33 29.62491 30.71633 17331 ft 347 kts 44°
2026-05-04 23:33 29.63999 30.73783 16872 ft 344 kts 44°
2026-05-04 23:33 29.65494 30.75919 16418 ft 341 kts 44°
2026-05-04 23:34 29.66957 30.78010 15982 ft 338 kts 44°
2026-05-04 23:34 29.68424 30.80103 15539 ft 335 kts 44°
2026-05-04 23:34 29.69880 30.82184 15110 ft 333 kts 45°
2026-05-04 23:34 29.71327 30.84251 14682 ft 330 kts 45°
2026-05-04 23:35 29.72752 30.86306 14265 ft 328 kts 46°
2026-05-04 23:35 29.74140 30.88380 13842 ft 326 kts 46°
2026-05-04 23:35 29.75501 30.90420 13347 ft 323 kts 46°
2026-05-04 23:35 29.76883 30.92464 12646 ft 323 kts 46°
2026-05-04 23:36 29.78258 30.94503 11944 ft 320 kts 47°
2026-05-04 23:36 29.79615 30.96517 11262 ft 316 kts 47°
2026-05-04 23:36 29.80945 30.98495 10591 ft 308 kts 47°
2026-05-04 23:36 29.82247 31.00425 9924 ft 302 kts 47°
2026-05-04 23:37 29.83526 31.02318 9199 ft 297 kts 47°
2026-05-04 23:37 29.84777 31.04178 8527 ft 290 kts 47°
2026-05-04 23:37 29.85995 31.05987 7996 ft 281 kts 47°
2026-05-04 23:37 29.87184 31.07748 7479 ft 276 kts 47°
2026-05-04 23:38 29.87958 31.08899 7139 ft 273 kts 47°
2026-05-04 23:38 29.89108 31.10613 6631 ft 268 kts 48°
2026-05-04 23:38 29.90243 31.12303 6113 ft 263 kts 48°
2026-05-04 23:38 29.91355 31.13958 5597 ft 258 kts 48°
2026-05-04 23:39 29.92438 31.15574 5096 ft 252 kts 49°
2026-05-04 23:39 29.93500 31.17157 4575 ft 247 kts 49°
2026-05-04 23:39 29.94541 31.18709 4055 ft 242 kts 49°
2026-05-04 23:39 29.95564 31.20233 3554 ft 237 kts 49°
2026-05-04 23:40 29.96476 31.21635 3050 ft 202 kts 50°
2026-05-04 23:40 29.97275 31.22835 2545 ft 178 kts 47°
2026-05-04 23:40 29.98016 31.23888 2484 ft 166 kts 45°
2026-05-04 23:40 29.98766 31.24890 2477 ft 164 kts 42°
2026-05-04 23:41 29.99518 31.25870 2481 ft 163 kts 45°
2026-05-04 23:41 30.00248 31.26868 2478 ft 163 kts 44°
2026-05-04 23:41 30.00990 31.27854 2481 ft 163 kts 44°
2026-05-04 23:41 30.01732 31.28838 2477 ft 162 kts 44°
2026-05-04 23:42 30.02472 31.29824 2479 ft 163 kts 44°
2026-05-04 23:42 30.03220 31.30817 2427 ft 166 kts 44°
2026-05-04 23:42 30.03972 31.31838 2216 ft 162 kts 44°
2026-05-04 23:42 30.04679 31.32764 2008 ft 151 kts 43°
2026-05-04 23:43 30.05356 31.33673 1806 ft 148 kts 44°
2026-05-04 23:43 30.06029 31.34565 1605 ft 147 kts 44°
2026-05-04 23:43 30.06686 31.35450 1416 ft 144 kts 44°
2026-05-04 23:43 30.07342 31.36317 1215 ft 143 kts 45°
2026-05-04 23:44 30.07987 31.37184 1022 ft 143 kts 46°
2026-05-04 23:44 30.08643 31.38042 830 ft 140 kts 45°
2026-05-04 23:44 30.09285 31.38895 611 ft 141 kts 47°
2026-05-04 23:44 30.09845 31.39666 439 ft 102 kts 47°
2026-05-04 23:45 30.10223 31.40160 369 ft 65 kts 47°
2026-05-04 23:45 30.10423 31.40430 372 ft 32 kts 49°
2026-05-04 23:45 30.10570 31.40624 370 ft 32 kts 49°
2026-05-04 23:45 30.10675 31.40760 367 ft 15 kts 39°
2026-05-04 23:46 30.10744 31.40752 367 ft 8 kts 317°
2026-05-04 23:46 30.10785 31.40710 369 ft 9 kts 318°
2026-05-04 23:46 30.10852 31.40659 369 ft 13 kts 343°
2026-05-04 23:46 30.10919 31.40695 369 ft 10 kts 47°
2026-05-04 23:47 30.10969 31.40761 369 ft 12 kts 49°
2026-05-04 23:47 30.11032 31.40844 369 ft 15 kts 49°
2026-05-04 23:47 30.11095 31.40927 369 ft 12 kts 50°
2026-05-04 23:47 30.11148 31.40999 369 ft 12 kts 49°
2026-05-04 23:48 30.11209 31.41078 369 ft 15 kts 47°
2026-05-04 23:48 30.11282 31.41177 369 ft 16 kts 50°
2026-05-04 23:48 30.11353 31.41256 369 ft 12 kts 39°
2026-05-04 23:48 30.11423 31.41266 369 ft 9 kts 342°
2026-05-04 23:49 30.11478 31.41245 369 ft 9 kts 342°
2026-05-04 23:49 30.11543 31.41221 369 ft 12 kts 342°
2026-05-04 23:49 30.11635 31.41188 369 ft 16 kts 342°
2026-05-04 23:49 30.11752 31.41144 369 ft 19 kts 342°
2026-05-04 23:50 30.11881 31.41097 369 ft 20 kts 342°
2026-05-04 23:50 30.12012 31.41050 369 ft 18 kts 343°
2026-05-04 23:50 30.12113 31.41014 369 ft 14 kts 342°
2026-05-04 23:50 30.12209 31.40979 369 ft 15 kts 342°
2026-05-04 23:51 30.12321 31.40937 369 ft 18 kts 343°
2026-05-04 23:51 30.12429 31.40899 369 ft 13 kts 342°
2026-05-04 23:51 30.12505 31.40872 369 ft 10 kts 342°
2026-05-04 23:51 30.12573 31.40847 369 ft 11 kts 342°
2026-05-04 23:52 30.12658 31.40816 369 ft 13 kts 342°
2026-05-04 23:52 30.12734 31.40789 369 ft 10 kts 342°
2026-05-04 23:52 30.12787 31.40767 369 ft 7 kts 323°
2026-05-04 23:52 30.12788 31.40725 369 ft 6 kts 253°
2026-05-04 23:53 30.12776 31.40680 369 ft 6 kts 252°
2026-05-04 23:53 30.12770 31.40658 369 ft 0 kts 252°